Regional Weather Roundup
Issued by NWS

Home | Current Version | Previous Version | Graphics & Text | Print | Product List | Glossary On
Versions: 1 2 3 4 5 6 7 8 9 10 11 12 13 14 15 16 17 18 19 20 21 22 23 24 25 26 27 28 29 30 31 32 33 34 35 36 37 38 39 40 41 42 43 44 45 46 47 48 49 50
000
ASUS43 KLMK 260710
RWRKY
KENTUCKY REGIONAL WEATHER ROUNDUP
NATIONAL WEATHER SERVICE LOUISVILLE KY
300 AM EDT WED APR 26 2017

NOTE "FAIR" INDICATES FEW OR NO CLOUDS BELOW 12,000 FEET
WITH NO SIGNIFICANT WEATHER AND/OR OBSTRUCTIONS TO VISIBILITY.

KYZ001>023-026-027-061>063-070>075-260800-
WESTERN AND SOUTH CENTRAL KENTUCKY

CITY           SKY/WX    TMP DP  RH WIND       PRES   REMARKS
PADUCAH        PTCLDY    68  53  58 SW8       29.60R
HENDERSON      CLOUDY    63  57  81 SE5       29.63F
OWENSBORO      PTCLDY    62  57  83 SE7       29.65F
HOPKINSVILLE   CLEAR     63  57  81 SE6       29.65S
BOWLING GREEN  CLEAR     58  56  93 CALM      29.68R
GLASGOW        CLEAR     59  53  80 CALM      29.69S
$$

KYZ024-025-028>034-038-045-046-053-260800-
NORTH CENTRAL KENTUCKY

CITY           SKY/WX    TMP DP  RH WIND       PRES   REMARKS
LOUISVILLE/SDF CLEAR     62  56  80 SE5       29.68R
LOUISVILLE/LOU CLEAR     62  57  83 CALM      29.68S
FORT KNOX      CLEAR     60  55  81 CALM      29.67R
$$

KYZ035>037-039>044-047>052-055>060-089>105-260800-
NORTHEAST KENTUCKY

CITY           SKY/WX    TMP DP  RH WIND       PRES   REMARKS
LEXINGTON      CLEAR     58  52  80 S6        29.70F
COVINGTON      PTCLDY    60  55  83 S5        29.70R
FRANKFORT      CLEAR     57  52  83 CALM      29.69S
$$

KYZ054-064>069-076>088-106>120-260800-
SOUTHEAST KENTUCKY

CITY           SKY/WX    TMP DP  RH WIND       PRES   REMARKS
JACKSON        CLEAR     59  55  87 CALM      29.73F
LONDON         CLEAR     56  53  90 CALM      29.73F
SOMERSET       CLEAR     55  55 100 S3        29.73F
MIDDLESBORO    FOG       51  51 100 CALM      29.76F VSB 1/4
MONTICELLO     SUNNY     55  54  96 NE6       29.73F
$$




USA.gov is the U.S. government's official web portal to all federal, state and local government web resources and services.